Date String (YYYY-MM-DD hh:mm:ss) UTC,Instrument flags,Ambient pressure (hPa),Sample flow (lpm),Bypass flow (lpm),Sample temperature (°C),Ambient temperature (°C),ASC tube jacket temperature (°C),LED temperature (°C),Box temperature (°C),Sample RH (%),Span deviation,Mass concentration (μg/m³),Mass concentration (μg/m³),Mass concentration (μg/m³)
DateTimeUTC,F1_M11,P_M11,Q1_M11,Q2_M11,T1_M11,T2_M11,T3_M11,T4_M11,T5_M11,U1_M11,ZSPAN_M11,X0_M11,X2_M11,X1_M11
2022-06-22 10:00:00,,0833.5,5.01,0.00,30.3,29.2,00.0,39.2,32.1,13.3,0000.0,0007.37,0003.53,0002.33
2022-06-22 10:01:00,,0833.4,4.99,0.00,30.3,29.2,00.0,39.2,32.1,13.3,0000.0,0006.91,0003.42,0002.32
2022-06-22 10:02:00,,0833.4,5.00,0.00,30.3,29.2,00.0,39.2,32.1,13.3,0000.0,0006.77,0003.38,0002.32
2022-06-22 10:03:00,,0833.4,5.01,0.00,30.3,29.2,00.0,39.2,32.1,13.3,0000.0,0006.82,0003.39,0002.32
2022-06-22 10:04:00,,0833.4,5.00,0.00,30.3,29.2,00.0,39.2,32.1,13.3,0000.0,0006.81,0003.39,0002.32
2022-06-22 10:05:00,,0833.4,5.00,0.00,30.3,29.1,00.0,39.2,32.1,13.3,0000.0,0006.81,0003.40,0002.30
2022-06-22 10:06:00,,0833.3,4.98,0.00,30.3,29.1,00.0,39.2,32.1,13.4,0000.0,0007.29,0003.40,0002.29
2022-06-22 10:07:00,,0833.3,5.00,0.00,30.3,29.1,00.0,39.2,32.1,13.4,0000.0,0007.37,0003.38,0002.29
2022-06-22 10:08:00,,0833.3,5.01,0.00,30.3,29.1,00.0,39.2,32.1,13.4,0000.0,0007.51,0003.41,0002.30
2022-06-22 10:09:00,,0833.3,5.01,0.00,30.3,29.1,00.0,39.2,32.1,13.4,0000.0,0007.69,0003.43,0002.31
2022-06-22 10:10:00,,0833.3,4.99,0.00,30.3,29.1,00.0,39.2,32.1,13.4,0000.0,0007.98,0003.47,0002.32
2022-06-22 10:11:00,,0833.3,5.01,0.00,30.3,29.1,00.0,39.2,32.1,13.4,0000.0,0008.28,0003.48,0002.33
2022-06-22 10:12:00,,0833.3,5.01,0.00,30.3,29.1,00.0,39.2,32.1,13.3,0000.0,0008.40,0003.52,0002.36
2022-06-22 10:13:00,,0833.3,4.99,0.00,30.3,29.1,00.0,39.2,32.1,13.3,0000.0,0008.50,0003.56,0002.37
2022-06-22 10:14:00,,0833.3,5.01,0.00,30.3,29.1,00.0,39.2,32.1,13.3,0000.0,0008.49,0003.58,0002.37
2022-06-22 10:15:00,,0833.3,5.00,0.00,30.3,29.1,00.0,39.2,32.1,13.3,0000.0,0008.47,0003.58,0002.37
2022-06-22 10:16:00,,0833.3,4.99,0.00,30.3,29.1,00.0,39.2,32.1,13.3,0000.0,0008.39,0003.55,0002.38
2022-06-22 10:17:00,,0833.3,5.00,0.00,30.3,29.1,00.0,39.2,32.1,13.3,0000.0,0008.21,0003.55,0002.39
2022-06-22 10:18:00,,0833.3,5.00,0.00,30.3,29.1,00.0,39.2,32.1,13.3,0000.0,0008.17,0003.58,0002.41
2022-06-22 10:19:00,,0833.4,5.01,0.00,30.3,29.1,00.0,39.2,32.1,13.3,0000.0,0008.13,0003.61,0002.40
2022-06-22 10:20:00,,0833.3,5.00,0.00,30.3,29.1,00.0,39.2,32.1,13.3,0000.0,0007.95,0003.61,0002.40
2022-06-22 10:21:00,,0833.3,5.00,0.00,30.3,29.1,00.0,39.2,32.1,13.2,0000.0,0007.76,0003.60,0002.39
2022-06-22 10:22:00,,0833.3,5.00,0.00,30.3,29.1,00.0,39.2,32.1,13.3,0000.0,0007.48,0003.60,0002.38
2022-06-22 10:23:00,,0833.3,5.00,0.00,30.3,29.1,00.0,39.2,32.1,13.3,0000.0,0007.64,0003.59,0002.38
2022-06-22 10:24:00,,0833.3,5.00,0.00,30.3,29.1,00.0,39.2,32.1,13.3,0000.0,0007.56,0003.57,0002.38
2022-06-22 10:25:00,,0833.3,5.00,0.00,30.3,29.1,00.0,39.2,32.1,13.3,0000.0,0007.64,0003.56,0002.40
2022-06-22 10:26:00,,0833.2,5.00,0.00,30.3,29.1,00.0,39.2,32.0,13.2,0000.0,0007.61,0003.49,0002.39
2022-06-22 10:27:00,,0833.2,5.01,0.00,30.3,29.1,00.0,39.2,32.0,13.3,0000.0,0007.68,0003.50,0002.39
2022-06-22 10:28:00,,0833.2,4.99,0.00,30.3,29.1,00.0,39.2,32.0,13.2,0000.0,0007.67,0003.49,0002.37
2022-06-22 10:29:00,,0833.1,5.01,0.00,30.3,29.1,00.0,39.1,32.0,13.0,0000.0,0007.66,0003.45,0002.35
2022-06-22 10:30:00,,0833.2,5.01,0.00,30.3,29.1,00.0,39.1,32.0,13.0,0000.0,0007.83,0003.42,0002.35
2022-06-22 10:31:00,,0833.2,4.99,0.00,30.3,29.1,00.0,39.1,32.1,12.9,0000.0,0007.83,0003.39,0002.34
2022-06-22 10:32:00,,0833.3,5.01,0.00,30.3,29.1,00.0,39.1,32.0,13.0,0000.0,0007.78,0003.38,0002.35
2022-06-22 10:33:00,,0833.3,5.00,0.00,30.3,29.1,00.0,39.1,32.0,13.0,0000.0,0007.85,0003.38,0002.37
2022-06-22 10:34:00,,0833.3,5.01,0.00,30.3,29.1,00.0,39.1,32.0,13.1,0000.0,0007.66,0003.36,0002.37
2022-06-22 10:35:00,,0833.3,4.99,0.00,30.3,29.1,00.0,39.1,32.0,13.1,0000.0,0008.03,0003.40,0002.37
2022-06-22 10:36:00,,0833.3,5.01,0.00,30.3,29.1,00.0,39.1,32.1,13.0,0000.0,0008.11,0003.42,0002.37
2022-06-22 10:37:00,,0833.3,5.00,0.00,30.2,29.1,00.0,39.1,32.0,13.0,0000.0,0008.01,0003.44,0002.37
2022-06-22 10:38:00,,0833.3,4.99,0.00,30.2,29.1,00.0,39.1,32.0,13.0,0000.0,0008.03,0003.44,0002.36
2022-06-22 10:39:00,,0833.3,5.01,0.00,30.2,29.1,00.0,39.1,32.0,13.0,0000.0,0007.94,0003.45,0002.37
2022-06-22 10:40:00,,0833.3,5.01,0.00,30.2,29.1,00.0,39.1,32.0,13.0,0000.0,0007.87,0003.49,0002.38
2022-06-22 10:41:00,,0833.3,5.00,0.00,30.2,29.1,00.0,39.1,32.0,13.0,0000.0,0007.65,0003.47,0002.37
2022-06-22 10:42:00,,0833.3,4.99,0.00,30.2,29.1,00.0,39.1,32.0,13.0,0000.0,0007.61,0003.48,0002.37
2022-06-22 10:43:00,,0833.3,5.00,0.00,30.2,29.1,00.0,39.1,32.0,12.9,0000.0,0007.62,0003.49,0002.36
2022-06-22 10:44:00,,0833.3,5.01,0.00,30.2,29.1,00.0,39.1,32.0,13.0,0000.0,0007.60,0003.48,0002.33
2022-06-22 10:45:00,,0833.3,5.00,0.00,30.2,29.1,00.0,39.1,32.0,13.0,0000.0,0007.73,0003.49,0002.31
2022-06-22 10:46:00,,0833.3,5.00,0.00,30.2,29.1,00.0,39.1,32.0,13.0,0000.0,0007.48,0003.49,0002.31
2022-06-22 10:47:00,,0833.3,5.00,0.00,30.2,29.1,00.0,39.1,32.0,13.0,0000.0,0007.28,0003.44,0002.29
2022-06-22 10:48:00,,0833.3,4.99,0.00,30.2,29.1,00.0,39.1,32.0,12.9,0000.0,0007.04,0003.44,0002.29
2022-06-22 10:49:00,,0833.3,5.00,0.00,30.2,29.1,00.0,39.1,32.0,12.9,0000.0,0006.96,0003.45,0002.30
2022-06-22 10:50:00,,0833.4,5.00,0.00,30.2,29.1,00.0,39.1,32.0,12.9,0000.0,0007.11,0003.47,0002.30
2022-06-22 10:51:00,,0833.4,4.99,0.00,30.2,29.1,00.0,39.1,32.0,12.8,0000.0,0007.20,0003.46,0002.30
2022-06-22 10:52:00,,0833.4,5.00,0.00,30.2,29.1,00.0,39.1,31.9,12.8,0000.0,0007.44,0003.50,0002.31
2022-06-22 10:53:00,,0833.4,5.01,0.00,30.2,29.1,00.0,39.1,31.9,12.7,0000.0,0007.55,0003.48,0002.30
2022-06-22 10:54:00,,0833.4,4.99,0.00,30.2,29.1,00.0,39.1,32.0,12.7,0000.0,0007.92,0003.51,0002.29
2022-06-22 10:55:00,,0833.4,5.00,0.00,30.2,29.1,00.0,39.1,32.0,12.7,0000.0,0008.68,0003.53,0002.31
2022-06-22 10:56:00,,0833.4,5.01,0.00,30.2,29.1,00.0,39.1,32.0,12.6,0000.0,0008.66,0003.52,0002.30
2022-06-22 10:57:00,,0833.3,4.99,0.00,30.2,29.1,00.0,39.1,32.0,12.6,0000.0,0008.57,0003.51,0002.30
2022-06-22 10:58:00,,0833.4,5.01,0.00,30.2,29.1,00.0,39.1,32.0,12.6,0000.0,0008.56,0003.51,0002.29
2022-06-22 10:59:00,,0833.4,5.00,0.00,30.2,29.1,00.0,39.1,32.0,12.6,0000.0,0008.66,0003.55,0002.27
